Location: Apeadero de Los Molinos-Guadarrama
(40.7091°N, 4.0689°W)
Time: 09:17:29
(UTC+00:00)

Cosmos 1833 Rocket - Pass Details

Date: 14 May 2021
Orbit: 831 x 841 km, 71.0° (Epoch: 20 June)

Event Time Altitude Azimuth Distance (km) Brightness Sun altitude
Rises 20:06:29 0° 344° (NNW) 3,404 6.7 -7.5°
Reaches altitude 10° 20:09:11 10° 354° (N) 2,466 5.7 -8.0°
Maximum altitude 20:14:16 33° 58° (ENE) 1,382 3.6 -8.8°
Enters shadow 20:18:55 12° 119° (ESE) 2,327 4.3 -9.5°
